Weather in Musirmy

Russia / Chuvash Republic     55°37′16″N   47°58′49″E
temp.,
°C
wind,
m/s
gust,
m/s
humid.,
%
clouds,
%
prec.,
mm/h
press.,
hPa
HPBL,
m
21 january, fri
fri2100:00−9ssw61489100 0.0 1016382
03:00−11ssw6138867 0.0 1016313
06:00−13s5139193 0.0 1017235
09:00−13s61491100 0.0 1017255
12:00−11s61489100 0.0 1017358
15:00−10sse61391100 0.0 1017311
18:00−11sse71692100 0.0 1016361
21:00−10sse71790100 0.0 1016431
22 january, sat
sat2200:00−10sse81789100 0.0 1015486
03:00−9sse81794100 0.8 1014594
06:00−9sse7149299 0.4 1015480
09:00−8sse6119394 0.7 1017386
12:00−6sse51094100 0.1 1018439
15:00−6se5995100 0.6 1019403
18:00−6se4995100 0.3 1020329
21:00−6se4996100 0.9 1021377
23 january, sun
sun2300:00−5se3996100 1.3 1022389
03:00−5sse4996100 2.1 1023403
06:00−5sse5995100 0.6 1024338
09:00−6sse4895100 0.9 1027300
12:00−5sse4796100 0.4 1028361
15:00−5sse3696100 0.9 1030310
18:00−6sse3796100 0.3 1032216
21:00−7sse2597100 0.6 1034147
24 january, mon
mon2400:00−7sse3596100 0.5 1035186
03:00−7se2496100 1.1 1036150
06:00−7se2496100 0.6 1036160
09:00−9ese1196100 0.6 103728
12:00−8ese128794 0.0 103896
15:00−12se119414 0.0 103710
18:00−17ese11975 0.0 10389
21:00−19se11995 0.0 10389
25 january, tue
tue2500:00−19s2210024 0.0 103710
03:00−20s1110033 0.0 103610
06:00−21s2210037 0.0 103510
09:00−21s229927 0.0 103422
12:00−12s24885 0.0 1032118
15:00−14sse22935 0.0 103118
18:00−18s229764 0.0 103121
21:00−18s2297100 0.0 103021